Regional Weather Roundup
Issued by NWS

Home | Current Version | Previous Version | Text Only | Print | Product List | Glossary On
Versions: 1 2 3 4 5 6 7 8 9 10 11 12 13 14 15 16 17 18 19 20 21 22 23 24 25 26 27 28 29 30 31 32 33 34 35 36 37 38 39 40 41 42 43 44 45 46 47 48 49 50
000
ASCA44 KEWX 251420
RWRMX

LATIN AMERICA AND CARIBBEAN REGIONAL WEATHER ROUNDUP
NATIONAL WEATHER SERVICE AUSTIN/SAN ANTONIO TX
900 AM CDT SUN JUN 25 2017

NOTE: "FAIR" INDICATED FEW OR NO CLOUDS BELOW 12,000 FEET WITH NO
SIGNIFICANT WEATHER AND/OR OBSTRUCTIONS TO VISIBILITY.

BAJA CALIFORNIA

CITY           SKY/WX    TMP DP  RH WIND       PRES   REMARKS
LORETO         MOSUNNY   81  73  78 CALM      29.82R
LA PAZ         PTSUNNY   68  63  83 S7        29.92
MEXICALI       MOSUNNY   79  66  65 SE7       29.76R
S.J. DEL CABO  MOSUNNY   79  66  65 N3        29.88R
TIJUANA        SUNNY     63  59  88 CALM      29.91R

NORTHWESTERN MEXICO

CITY           SKY/WX    TMP DP  RH WIND       PRES   REMARKS
CULIACAN       SUNNY     79  73  83 SE6       29.89S
DURANGO        MOSUNNY   64  50  59 NE10      30.34R
HERMOSILLO     MOSUNNY   88  68  51 E6        29.89R HX  91
CD. JUAREZ     PTSUNNY   72  63  73 S3        30.23
OBREGON        PTSUNNY   82  68  61 E6        29.85R

NORTHEASTERN MEXICO

CITY           SKY/WX    TMP DP  RH WIND       PRES   REMARKS
CHIHUAHUA      MOSUNNY   72  54  53 CALM      30.20
MATAMOROS      PTSUNNY   79  77  94 CALM      30.07R
MONCLOVA         N/A    N/A N/A N/A MISG        N/A
MONTERREY      PTSUNNY   75  64  69 CALM      30.12R
NUEVO LAREDO   MOSUNNY   81  73  78 E7        30.11
PIEDRAS NEGRAS PTSUNNY   77  70  78 E7        30.16
REYNOSA        PTSUNNY   79  68  69 N6        30.08R
SALTILLO       PTSUNNY   70  57  64 CALM      30.33R
TORREON        MOSUNNY   79  57  47 E5        30.19R
CD. VICTORIA   PTSUNNY   73  73 100 N8        30.11R

WESTERN MEXICO

CITY           SKY/WX    TMP DP  RH WIND       PRES   REMARKS
AGUASCALIENTES PTSUNNY   66  50  55 NE14      30.33R
COLIMA         CLOUDY    70  68  94 CALM      30.05R
DEL BAJIO      PTSUNNY   68  52  56 CALM      30.33R
GUADALAJARA    PTSUNNY   68  59  73 CALM      30.22R
MANZANILLO     PTSUNNY   77  72  83 N6        29.86
MAZATLAN       MOSUNNY   82  73  74 CALM      29.92R
P. VALLARTA    PTSUNNY   79  79 100 NE3       29.90R
URUAPAN        CLOUDY    64  63  94 CALM      30.19R
ZACATECAS      MOSUNNY   61  50  67 E6        30.38R

CENTRAL MEXICO

CITY           SKY/WX    TMP DP  RH WIND       PRES   REMARKS
CUERNAVACA     PTSUNNY   68  64  88 CALM      30.16S
MEXICO CITY    CLOUDY    61  52  72 E3        30.38R
MORELIA        PTSUNNY   59  59 100 CALM      30.27S
POZA RICA      LGT RAIN  75  75 100 N6        30.07R FOG
PUEBLA         CLOUDY    57  54  88 N5        30.38
QUERETARO      PTSUNNY   61  55  82 E6        30.37R
S. LUIS POTOSI CLOUDY    61  59  94 E5        30.34R
TAMPICO        CLOUDY    75  73  94 W12       30.03R
TOLUCA         CLOUDY    55  52  88 S6        30.42R

SOUTHERN MEXICO

CITY           SKY/WX    TMP DP  RH WIND       PRES   REMARKS
ACAPULCO       LGT RAIN  75  73  94 NE7       29.91R
B. DE HUATULCO CLOUDY   N/A N/A N/A CALM      30.00S
OAXACA         CLOUDY    64  61  88 N5        30.28R
P. ESCONDIDO   CLOUDY    77  72  83 E9        30.01R
VERACRUZ       CLOUDY    77  75  94 N3        30.00S
ZIHUATANEJO    CLOUDY    77  75  94 NE2       29.89R

YUCATAN PENINSULA

CITY           SKY/WX    TMP DP  RH WIND       PRES   REMARKS
CAMPECHE       PTSUNNY   81  79  94 E12       29.98R
CANCUN         PTSUNNY   84  79  84 E9        30.04R HX  96
CHETUMAL       PTSUNNY   84  77  79 E12       30.00R HX  94
CD. DEL CARMEN CLOUDY   N/A N/A N/A E14       29.97S
COZUMEL        PTSUNNY   84  77  79 E12       30.01R HX  94
MERIDA         PTSUNNY   81  77  89 E9        30.02R
MINATITLAN     CLOUDY    81  79  94 CALM      29.97R
TAPACHULA      PTSUNNY   81  77  89 CALM      29.90S
TUX. GUTIERREZ CLOUDY    73  70  88 CALM      30.04R
VILLAHERMOSA   CLOUDY    75  75 100 CALM      30.01R

CENTRAL AMERICA

CITY           SKY/WX    TMP DP  RH WIND       PRES   REMARKS
BELIZE CITY    MOSUNNY   84  79  84 E7        29.98S HX  96
MANAGUA        MOSUNNY   82  73  74 E7        29.86S

CARIBBEAN

CITY           SKY/WX    TMP DP  RH WIND       PRES   REMARKS
ARUBA          MOSUNNY   88  77  70 E25G37    29.94S HX 100
CURACAO        MOSUNNY   86  75  70 E18       29.97S HX  95
KINGSTON       PTSUNNY   81  73  78 N9        30.00S
SAN JUAN       MOSUNNY   86  75  70 E16       30.08S HX  95
SANTO DOMINGO  PTSUNNY   84  77  79 E8        30.06R HX  94
ST. CROIX      MOSUNNY   88  75  66 E21G28    30.08  HX  97
ST. KITTS      MOSUNNY   86  73  66 NE17      30.06S HX  93
ST. MAARTEN    MOSUNNY   84  75  74 E15       30.09S HX  92
ST. THOMAS     PTSUNNY   90  75  62 E12       30.07  HX 100

$$




USA.gov is the U.S. government's official web portal to all federal, state and local government web resources and services.